www.pogodaiklimat.ru

Погода и климат >> Архив погоды >> Италия >> Roma


АРХИВ ПОГОДЫ в Roma

Время (UTC), дата Ветер
(напр.,м/с)
 
Видим.   Явления Облачность Т
(С)
Тd
(С)
f
(%)
Тe
(С)
Тes
(С)
Комфортность P
(гПа)
Po
(гПа)
Тmin
(С)
Tmax
(С)
R
(мм)
R24
(мм)
S
(см)
21 18.07 С 2 25 км ясно +22.4 +21.1 92 +29 +29 очень
душно
1019.3 1018.8
00 19.07 С 1 15 км ясно +19.1 +18.4 96 +22 +22 комфорт 1019.1 1018.6
03 19.07 СЗ 2 8000 м дымка ясно +16.9 +16.5 97 +17 +17 холодно 1018.9 1018.4
06 19.07 СВ 1 15 км ясно +22.0 +16.3 70 +26 +30 душно 1019.0 1018.5 +16.5
09 19.07 З 4 25 км ясно +28.7 +12.2 36 +30 +41 жарко 1019.0 1018.6
12 19.07 З 6 30 км ясно +27.9 +19.6 61 +34 +41 очень
душно
1018.7 1018.3
15 19.07 З 5 30 км ясно +27.5 +15.8 49 +31 +35 душно 1017.8 1017.3
18 19.07 З 3 30 км ясно +25.2 +19.1 69 +30 +30 душно 1017.2 1016.7 +29.6
21 19.07 З 1 30 км 1/0
[Ci fib]
+21.9 +19.5 86 +27 +27 душно 1016.5 1017.3
00 20.07 В 2 30 км ясно +19.5 +17.7 89 +23 +23 комфорт 1016.0 1015.6
03 20.07 СВ 1 9000 м дымка ясно +16.4 +15.9 97 +17 +17 холодно 1015.9 1015.4
06 20.07 В 2 30 км ясно +21.2 +15.6 70 +24 +28 комфорт 1016.2 1015.7 +15.9
09 20.07 З 4 30 км 1/0
[Cs]
+27.8 +15.6 47 +31 +40 душно 1015.7 1015.3
12 20.07 З 5 30 км ясно +28.9 +11.4 34 +30 +39 жарко 1015.1 1014.6
15 20.07 З 5 25 км ясно +27.5 +19.9 63 +33 +38 очень
душно
1014.0 1013.5
18 20.07 З 3 25 км ясно +25.5 +20.0 72 +31 +31 очень
душно
1013.8 1013.3 +29.8
21 20.07 В 1 20 км ясно +22.8 +19.9 84 +29 +29 очень
душно
1014.1 1013.6
00 21.07 СВ 1 20 км ясно +19.0 +17.5 91 +22 +22 комфорт 1014.0 1013.5
03 21.07 В 1 15 км ясно +18.2 +17.2 94 +20 +20 прохладно 1013.7 1013.2
06 21.07 В 3 8000 м дымка 1/0
[Ac trans]
+22.3 +18.4 79 +28 +30 душно 1014.2 1013.8 +18.0
09 21.07 Ю 3 20 км ясно +30.0 +13.8 37 +32 +44 жарко 1014.6 1014.2
12 21.07 ЮЗ 6 35 км 3/0
[Ac trans Cc]
+30.8 +15.9 41 +34 +41 очень
душно
1014.3 1013.9
15 21.07 Ю 6 35 км 4/0
[Ac trans Cc]
+30.6 +14.1 37 +32 +35 жарко 1013.1 1012.7
18 21.07 ЮВ 5 30 км 5/0
[Ac trans]
+27.6 +17.1 53 +32 +32 очень
душно
1012.9 1012.4 +32.1
21 21.07 ЮВ 3 30 км 4/0
[Ac lent]
+26.0 +20.9 74 +33 +33 очень
душно
1013.5 1013.1
00 22.07 ЮВ 2 30 км ясно +23.6 +19.1 76 +28 +28 душно 1013.7 1013.2
03 22.07 ЮВ 4 35 км ясно +24.3 +17.4 65 +28 +28 душно 1013.9 1013.4
06 22.07 ЮВ 3 35 км ясно +27.8 +16.0 49 +31 +34 душно 1014.0 1013.5 +22.9
09 22.07 Ю 6 35 км ясно +29.5 +20.7 59 +37 +42 очень
душно
1015.4 1014.9
12 22.07 Ю 7 30 км 1/1 1050 м
[Cu hum]
+30.0 +21.8 62 +39 +44 очень
душно
1015.7 1015.2
15 22.07 Ю 5 30 км ясно +29.6 +21.4 61 +37 +41 очень
душно
1015.0 1014.5
18 22.07 ЮВ 4 20 км ясно +27.4 +23.1 77 +37 +37 очень
душно
1014.8 1014.4 +31.1
21 22.07 Ю 3 20 км 5/5 360 м
[Cu hum]
+26.5 +23.7 85 +36 +36 очень
душно
1016.0 1015.5
00 23.07 З 2 13 км 5/5 540 м
[Cu hum]
+25.7 +23.2 86 +34 +34 очень
душно
1016.7 1016.2
03 23.07 СВ 2 13 км 1/0
[Ac lent]
+23.8 +22.1 90 +31 +31 очень
душно
1015.8 1015.3
06 23.07 С 2 13 км ясно +26.5 +22.5 79 +35 +38 очень
душно
1016.0 1015.6 +23.0
09 23.07 З 5 19 км ясно +29.5 +20.2 57 +36 +45 очень
душно
1016.4 1015.9
12 23.07 З 6 15 км ясно +29.0 +22.3 67 +38 +46 очень
душно
1016.6 1016.1
15 23.07 З 5 15 км 1/1 360 м
[Cu hum]
+28.3 +23.6 76 +39 +42 очень
душно
1015.1 1014.7
18 23.07 СЗ 4 12 км 3/0
[Ci sp]
+26.6 +23.4 83 +36 +36 очень
душно
1014.5 1014.0 +30.4
21 23.07 ЮЗ 3 25 км 3/0
[Ac trans]
+27.0 +22.8 78 +36 +36 очень
душно
1014.3
09 24.07 Ю 8 15 км 8/8 450 м
[Cu med, cong]
+28.6 +23.6 74 +39 +39 очень
душно
1009.8 1009.3
12 24.07 ЮЗ 7 20 км 4/4 750 м
[Cu med, cong Ci fib]
+28.1 +20.2 62 +34 +38 очень
душно
1008.2 1007.7
06 25.07 З 1 15 км 1/1 450 м
[Cu hum]
+25.5 +19.4 69 +31 +34 очень
душно
1004.8 1004.4 +23.0
09 25.07 Ю 5 15 км 1/1 600 м
[Cu hum]
+27.0 +18.1 58 +32 +39 очень
душно
1005.0 1004.5
12 25.07 Ю 7 15 км 1/1 600 м
[Cu med, cong]
+28.2 +15.2 45 +31 +35 душно 1004.3 1003.9
15 25.07 В 2 15 км 3/1 600 м
[Cu med, cong Ci ing]
+27.6 +13.8 43 +30 +36 жарко 1004.2 1003.8
18 25.07 ЮЗ 4 15 км 3/3 450 м
[Cb cap Ci ing]
+25.7 +19.5 69 +31 +31 очень
душно
1004.7 1004.3 +28.8

 

Местоположение метеостанции Roma (Италия): широта 41.80 долгота 12.23 высота над уровнем моря 3 м.

В архиве по умолчанию представлена погода в Roma за последнюю неделю. Архивные данные за месяц целиком и за предыдущие месяцы, начиная с января 2011 года, Вы можете получить, выбрав интересующий диапазон дат из раскрывающегося списка и нажав кнопку "Ввод!".

Внимание! Время в таблицах - всемирное. Для получения местного времени необходимо прибавить поправку, которая в Roma равна 1 ч.

Смотрите также архив погоды в соседних городах и на ближайших метеорологических станциях:

Погода в Pratica di Mare (Италия) (25 км)
Погода в Vigna di Valle (Италия) (31 км)
Погода в Civitavecchia (Италия) (42 км)
Погода в Guidonia (Италия) (47 км)
Погода в Latina (Италия) (62 км)
Погода в Latina (Италия) (62 км)
Погода в Viterbo (Италия) (72 км)
Погода в Frosinone (Италия) (91 км)
Погода в Torre Olevola (Италия) (96 км)
Погода в Monte Terminillo (Италия) (97 км)

Пояснения к столбцам:

Ветер - указаны скорость ветра в м/с - средняя за 10 мин, порывы в срок и между сроками (в фигурных скобках) и направление, откуда дует ветер: С - северный, СВ - северо-восточный, В - восточный, ЮВ - юго-восточный, Ю - южный, ЮЗ - юго-западный, З - западный, СЗ - северо-западный.
Видимость - горизонтальная дальность видимости в метрах или километрах. При видимости от 1 до 10 км при отсутствии осадков обычно наблюдается дымка, при ухудшении видимости до 1 км и менее - туман. В сухую погоду видимость может ухудшаться дымом, пылью или мглою.
Явления - указаны атмосферные явления, наблюдавшиеся в срок или в последний час перед сроком; фигурными скобками обозначены явления, наблюдавшиеся между сроками (за 1-3 часа до срока); квадратными скобками обозначены град или гололедные отложения с указанием их диаметра в мм.
Облачность - указаны через наклонную черту общая и нижняя облачность в баллах и высота нижней границы облаков в метрах; квадратными скобками обозначены формы облаков: Ci - перистые, Cs - перисто-слоистые, Cc - перисто-кучевые, Ac - высококучевые, As - высокослоистые, Sc - слоисто-кучевые, Ns - слоисто-дождевые, Cu - кучевые, Cb - кучево-дождевые. Подробнее классификацию облаков см. в Атласе облаков (PDF).
T - Температура воздуха - температура, измеренная на высоте 2 м над землей.
Td - Температура точки росы - температура, при понижении до которой содержащийся в воздухе водяной пар достигнет насыщения.
f - Относительная влажность воздуха - влажноcть воздуха, измеренная на высоте 2 м над землей.
Te - Эффективная температура - температура, которую ощущает одетый по сезону человек в тени. Характеристика душности погоды. При расчете учитывается влияние влажности воздуха и скорости ветра на теплоощущения человека.
Tes - Эффективная температура на солнце - температура, которую ощущает человек, с поправкой на солнечный нагрев. Характеристика знойности погоды. Зависит от высоты солнца над горизонтом, облачности и скорости ветра. Ночью, в пасмурную погоду, а также при ветре 12 м/с и более поправка равна нулю.
P - Атмосферное давление - приведенное к уровню моря атмосферное давление.
Po - Атмосферное давление - измеренное на уровне метеостанции атмосферное давление.
Tmin - Минимальная температура - минимум температуры воздуха на высоте 2 м над землей.
Tmax - Максимальная температура - максимум температуры воздуха на высоте 2 м над землей.
R - Количество осадков - Количество выпавших осадков за период времени, мм. При наведении курсора мыши на число - период времени, за который выпало указанное количество осадков.
R24 - Количество осадков - Количество выпавших осадков за 24 часа, мм.
S - Снежный покров - Высота снежного покрова, см. При наведении курсора мыши на число - состояние снежного покрова и степень покрытия местности в баллах.